WMT3LV LRCL-ENTO

Flight info

Callsign WMT3LV
Flight time N/A
Altitude 34000
Route LARMU DCT KARIL DCT KENIN DCT LENOV DCT LUSID DCT NILEN DCT ARQUS DCT LALIL DCT SABAK L617 REPKU
Aircraft A321/M-SDE1E2E3FGIJ1J4RWXY/LB1

Departure

Time 2026-04-27 13:48
Airport Avram Iancu Cluj International Airport (LRCL)

Arrival

Time N/A
Airport Sandefjord Airport, Torp (ENTO)
Time Latitude Longitude Altitude Speed Heading
2026-04-27 13:25 46.78361 23.68816 1043 ft 0 kts 175°
2026-04-27 13:38 46.78371 23.68815 1043 ft 4 kts 175°
2026-04-27 13:39 46.78394 23.68813 1043 ft 4 kts 167°
2026-04-27 13:39 46.78413 23.68798 1043 ft 4 kts 111°
2026-04-27 13:39 46.78416 23.68762 1043 ft 4 kts 85°
2026-04-27 13:39 46.78415 23.68751 1043 ft 1 kts 85°
2026-04-27 13:43 46.78415 23.68754 1043 ft 1 kts 85°
2026-04-27 13:43 46.78417 23.68788 1043 ft 5 kts 86°
2026-04-27 13:43 46.78420 23.68856 1043 ft 8 kts 86°
2026-04-27 13:43 46.78445 23.68939 1043 ft 10 kts 20°
2026-04-27 13:44 46.78521 23.68913 1043 ft 13 kts 342°
2026-04-27 13:44 46.78612 23.68870 1043 ft 13 kts 342°
2026-04-27 13:44 46.78673 23.68903 1043 ft 11 kts 58°
2026-04-27 13:44 46.78703 23.69025 1043 ft 14 kts 72°
2026-04-27 13:45 46.78733 23.69162 1043 ft 9 kts 72°
2026-04-27 13:45 46.78777 23.69223 1043 ft 8 kts
2026-04-27 13:45 46.78795 23.69218 1043 ft 3 kts 344°
2026-04-27 13:45 46.78818 23.69208 1043 ft 4 kts 343°
2026-04-27 13:46 46.78859 23.69189 1043 ft 8 kts 342°
2026-04-27 13:46 46.78919 23.69212 1043 ft 11 kts 47°
2026-04-27 13:46 46.78957 23.69350 1043 ft 17 kts 71°
2026-04-27 13:46 46.78987 23.69515 1043 ft 17 kts 83°
2026-04-27 13:47 46.79009 23.69619 1043 ft 2 kts 16°
2026-04-27 13:47 46.79013 23.69598 1043 ft 3 kts 275°
2026-04-27 13:47 46.78978 23.69437 1043 ft 51 kts 252°
2026-04-27 13:47 46.78774 23.68533 1043 ft 131 kts 251°
2026-04-27 13:48 46.78437 23.67005 1285 ft 171 kts 255°
2026-04-27 13:48 46.78083 23.65359 2223 ft 170 kts 253°
2026-04-27 13:48 46.77709 23.63714 3157 ft 171 kts 253°
2026-04-27 13:48 46.77313 23.62103 4057 ft 170 kts 251°
2026-04-27 13:49 46.76949 23.60417 4721 ft 179 kts 263°
2026-04-27 13:49 46.77141 23.58582 4896 ft 195 kts 300°
2026-04-27 13:49 46.78123 23.57146 5059 ft 209 kts 323°
2026-04-27 13:49 46.79341 23.55824 5182 ft 230 kts 322°
2026-04-27 13:50 46.80693 23.54358 5436 ft 254 kts 322°
2026-04-27 13:50 46.82140 23.52791 6103 ft 263 kts 321°
2026-04-27 13:50 46.83622 23.51182 6886 ft 267 kts 321°
2026-04-27 13:50 46.85111 23.49566 7663 ft 268 kts 321°
2026-04-27 13:51 46.86607 23.47938 8498 ft 268 kts 321°
2026-04-27 13:51 46.88103 23.46302 9265 ft 269 kts 321°
2026-04-27 13:51 46.89606 23.44660 10034 ft 270 kts 321°
2026-04-27 13:51 46.91128 23.42994 10544 ft 281 kts 321°
2026-04-27 13:52 46.92753 23.41212 10698 ft 303 kts 321°
2026-04-27 13:52 46.94496 23.39297 10909 ft 321 kts 321°
2026-04-27 13:52 46.96304 23.37315 11468 ft 327 kts 321°
2026-04-27 13:52 46.98132 23.35315 12113 ft 329 kts 321°
2026-04-27 13:53 47.01824 23.31259 13465 ft 334 kts 321°
2026-04-27 13:53 47.03690 23.29200 14133 ft 337 kts 321°
2026-04-27 13:53 47.05565 23.27131 14711 ft 339 kts 321°
2026-04-27 13:54 47.07458 23.25041 15317 ft 342 kts 321°
2026-04-27 13:54 47.09363 23.22933 15903 ft 344 kts 321°
2026-04-27 13:54 47.11276 23.20814 16507 ft 346 kts 321°
2026-04-27 13:54 47.13204 23.18683 17110 ft 348 kts 321°
2026-04-27 13:55 47.15149 23.16534 17702 ft 351 kts 321°
2026-04-27 13:55 47.17102 23.14371 18292 ft 353 kts 320°
2026-04-27 13:55 47.19067 23.12190 18819 ft 356 kts 320°
2026-04-27 13:55 47.21052 23.09985 19326 ft 358 kts 320°
2026-04-27 13:56 47.23046 23.07766 19822 ft 361 kts 321°
2026-04-27 13:56 47.25057 23.05527 20317 ft 364 kts 321°
2026-04-27 13:56 47.27087 23.03265 20805 ft 367 kts 321°
2026-04-27 13:56 47.29135 23.00981 21302 ft 370 kts 321°
2026-04-27 13:57 47.31198 22.98679 21791 ft 373 kts 321°
2026-04-27 13:57 47.33272 22.96360 22264 ft 376 kts 321°
2026-04-27 13:57 47.35365 22.94020 22738 ft 379 kts 321°
2026-04-27 13:57 47.37469 22.91669 23208 ft 381 kts 321°
2026-04-27 13:58 47.39590 22.89291 23642 ft 384 kts 321°
2026-04-27 13:58 47.41723 22.86895 24035 ft 386 kts 321°
2026-04-27 13:58 47.43863 22.84484 24412 ft 389 kts 321°
2026-04-27 13:58 47.46020 22.82052 24792 ft 390 kts 321°
2026-04-27 13:59 47.48181 22.79620 25174 ft 392 kts 321°
2026-04-27 13:59 47.50360 22.77169 25538 ft 394 kts 321°
2026-04-27 13:59 47.52550 22.74707 25905 ft 396 kts 321°
2026-04-27 13:59 47.54743 22.72236 26261 ft 398 kts 321°
2026-04-27 14:00 47.56949 22.69740 26614 ft 400 kts 321°
2026-04-27 14:00 47.59166 22.67232 26968 ft 402 kts 321°
2026-04-27 14:00 47.61365 22.64745 27311 ft 404 kts 321°
2026-04-27 14:00 47.63603 22.62209 27656 ft 406 kts 320°
2026-04-27 14:01 47.65848 22.59660 27989 ft 408 kts 320°
2026-04-27 14:01 47.68101 22.57098 28327 ft 409 kts 320°
2026-04-27 14:01 47.70367 22.54520 28656 ft 411 kts 320°
2026-04-27 14:01 47.72639 22.51932 28974 ft 413 kts 320°
2026-04-27 14:02 47.74922 22.49327 29294 ft 415 kts 320°
2026-04-27 14:02 47.77217 22.46704 29606 ft 417 kts 320°
2026-04-27 14:02 47.79540 22.44115 29924 ft 420 kts 324°
2026-04-27 14:02 47.82040 22.41836 30236 ft 422 kts 326°
2026-04-27 14:03 47.84566 22.39579 30525 ft 423 kts 326°
2026-04-27 14:03 47.87087 22.37321 30912 ft 422 kts 326°
2026-04-27 14:03 47.89597 22.35068 31284 ft 421 kts 326°
2026-04-27 14:03 47.92101 22.32816 31647 ft 420 kts 326°
2026-04-27 14:04 47.94600 22.30567 32004 ft 419 kts 326°
2026-04-27 14:04 47.97093 22.28321 32364 ft 418 kts 326°
2026-04-27 14:04 47.99577 22.26073 32719 ft 417 kts 326°
2026-04-27 14:04 48.02058 22.23824 33068 ft 416 kts 326°
2026-04-27 14:05 48.04531 22.21579 33415 ft 415 kts 326°
2026-04-27 14:05 48.06996 22.19339 33760 ft 414 kts 326°
2026-04-27 14:05 48.09460 22.17099 34104 ft 414 kts 326°
2026-04-27 14:05 48.11913 22.14872 34405 ft 413 kts 326°
2026-04-27 14:06 48.14369 22.12647 34668 ft 412 kts 327°